Location: Newark
(44.2833°N, 6.3178°E)
Time: 18:43:21
(UTC+00:00)

N. Korean satellite - Visible Passes

Search period start: 17 October 2019 00:00
Search period end: 27 October 2019 00:00
Orbit: 455 x 508 km, 97.2° (Epoch: 16 October)

Date Brightness Start Highest point End Pass type
(mag) Time Alt. Az. Time Alt. Az. Time Alt. Az.
17 Oct 10.1 04:32:59 10° ENE 04:35:04 15° E 04:37:09 10° SE visible
18 Oct 10.4 17:52:42 10° WSW 17:53:46 11° W 17:54:50 10° WNW visible
19 Oct 7.8 05:14:34 10° NNE 05:18:05 47° E 05:21:37 10° S visible
19 Oct 9.5 17:25:32 10° SSW 17:28:16 22° W 17:31:01 10° NW visible
20 Oct 9.4 04:49:43 10° NE 04:52:41 23° E 04:55:41 10° SSE visible
21 Oct 10.3 04:25:41 10° ENE 04:27:12 12° E 04:28:43 10° ESE visible
22 Oct 10.1 17:44:00 10° SW 17:45:51 14° W 17:47:44 10° WNW visible
23 Oct 8.3 05:06:49 10° NNE 05:10:15 38° E 05:13:42 10° SSE visible
23 Oct 9.0 17:17:23 10° SSW 17:20:22 27° W 17:23:24 10° NW visible
24 Oct 9.7 04:42:06 10° NE 04:44:49 19° E 04:47:33 10° SE visible
26 Oct 7.2 05:24:06 10° NNE 05:27:45 65° ESE 05:31:25 10° S visible
26 Oct 9.9 17:35:34 10° SW 17:37:55 17° W 17:40:17 10° NW visible
